BEIJING 1 1 28890U 05043A 26256.34453509 .00000083 00000+0 25507-4 0 9996 2 28890 98.3039 30.1094 0014898 11.1813 348.9717 14.63575485113544 HUANJING 1A (HJ-1A) 1 33320U 08041A 26256.28852341 .00000230 00000+0 33689-4 0 9995 2 33320 97.6773 238.7721 0017949 205.4544 154.5789 14.84156444971474 HUANJING 1B (HJ-1B) 1 33321U 08041B 26256.29839230 .00000115 00000+0 20244-4 0 9994 2 33321 97.6605 241.6822 0034616 254.1070 105.6329 14.83457553971470 YAOGAN-4 1 33446U 08061A 26255.79707003 .00000660 00000+0 86965-4 0 9997 2 33446 97.9322 188.6735 0015036 140.5897 219.6414 14.83338778958653 DEIMOS-1 1 35681U 09041A 26256.29126079 .00000325 00000+0 55063-4 0 9996 2 35681 97.7518 49.7646 0000224 73.6811 286.4424 14.75313028919870 UK-DMC 2 1 35683U 09041C 26256.28152122 .00000786 00000+0 12093-3 0 9991 2 35683 97.8960 29.1599 0001272 70.2262 289.9085 14.76139934919560 DMC3-FM1 1 40715U 15032A 26256.29418334 -.00000188 00000+0 -15699-4 0 9995 2 40715 97.6324 117.9608 0006758 114.7135 245.4785 14.85813986602994 DMC3-FM2 1 40716U 15032B 26256.31581616 .00000422 00000+0 54403-4 0 9998 2 40716 97.6374 119.6143 0007224 120.0041 240.1893 14.85824720602998 DMC3-FM3 1 40717U 15032C 26256.27246117 .00000460 00000+0 58781-4 0 9993 2 40717 97.6424 121.3799 0006425 118.1906 241.9960 14.85814045602995